This is the latest recevied weather packets stored in our database for station/object K5NAN. If no packets are shown the sender has not sent any weather packets the latest 10 day(s).
| Time | Temp. | Humidity | Pressure | Rain* | Wind** | Luminosity | Snow |
|---|---|---|---|---|---|---|---|
| 1777083222 | 26.67° C | 74% | 1002.5 hPa | 0 mm | - | 0 W/m² | - |
| 1777082922 | 26.67° C | 76% | 1002.6 hPa | 0 mm | - | 0 W/m² | - |
| 1777082617 | 26.11° C | 76% | 1002.8 hPa | 0 mm | - | 0 W/m² | - |
| 1777082313 | 25.56° C | 78% | 1002.7 hPa | 0 mm | - | 0 W/m² | - |
| 1777082007 | 25.56° C | 79% | 1002.9 hPa | 0 mm | - | 0 W/m² | - |
| 1777081703 | 25.56° C | 79% | 1002 hPa | 0 mm | - | 0 W/m² | - |
| 1777081399 | 25.56° C | 78% | 1002.4 hPa | 0 mm | - | 0 W/m² | - |
| 1777081095 | 25.56° C | 78% | 1002.4 hPa | 0 mm | - | 0 W/m² | - |
| 1777080794 | 25.56° C | 79% | 1002.3 hPa | 0 mm | - | 0 W/m² | - |
| 1777080485 | 25.56° C | 79% | 1002.1 hPa | 0 mm | - | 0 W/m² | - |
| 1777080184 | 25.56° C | 78% | 1002.4 hPa | 0 mm | - | 0 W/m² | - |
| 1777079884 | 25.56° C | 78% | 1002.3 hPa | 0 mm | - | 0 W/m² | - |
| 1777079579 | 26.11° C | 77% | 1002.4 hPa | 0 mm | - | 1 W/m² | - |
| 1777079274 | 26.11° C | 76% | 1002.2 hPa | 0 mm | - | 1 W/m² | - |
| 1777078971 | 26.11° C | 76% | 1002.3 hPa | 0 mm | - | 3 W/m² | - |
| 1777078667 | 26.67° C | 76% | 1002.3 hPa | 0 mm | - | 5 W/m² | - |
| 1777078365 | 26.67° C | 75% | 1002.2 hPa | 0 mm | - | 9 W/m² | - |
| 1777078063 | 26.67° C | 74% | 1002.4 hPa | 0 mm | - | 13 W/m² | - |
| 1777077759 | 26.67° C | 74% | 1002.3 hPa | 0 mm | - | 17 W/m² | - |
| 1777077457 | 27.22° C | 73% | 1002.4 hPa | 0 mm | - | 19 W/m² | - |
| 1777077156 | 27.22° C | 72% | 1002.4 hPa | 0 mm | - | 24 W/m² | - |
| 1777076856 | 27.22° C | 72% | 1002.1 hPa | 0 mm | - | 41 W/m² | - |
| 1777076552 | 27.78° C | 71% | 1002.1 hPa | 0 mm | - | 37 W/m² | - |
| 1777076248 | 27.78° C | 71% | 1002 hPa | 0 mm | - | 42 W/m² | - |
| 1777075943 | 27.78° C | 71% | 1001.9 hPa | 0 mm | - | 46 W/m² | - |
* Rain latest hour (hover to see other rain measurements)
** Current wind speed in m/s (hover to see current wind gust speed)